STARLINK-4502, 53557

Orbit data source: Space-Track

STARLINK-4502, 53557 is a payload satellite owned by SpaceX/Seattle (US) in LEO that was launched on Fri, 19 Aug 2022 UTC via an FALCON 9 launch vehicle from the Air Force Eastern Test Range (AFETR). Payload-class satellites include a variety of spacecraft equipped with specific instruments for various scientific and technological missions. These include communications satellites like Starlink; space stations such as the ISS; scientific satellites like the Hubble; Earth observation satellites from companies like Planet Labs, Umbra, and HawkEye 360; GPS; miniature CubeSats for education and research; and military/defense satellites.

Loading next visibility...
Identifier
53557, 2022-101AG
Orbit
LEO
Country
Flag of USUS
Related business
Manufacturer
SpaceX/Seattle
Mission
Operational Commercial Communications
Bus & Motor
STARLINK, Unknown motor
Mass
300 kg wet, ~290 kg dry
Launch date (UTC)
2022-08-19 (4 years ago)
Launch vehicle
FALCON 9
Launch site
Air Force Eastern Test Range (AFETR)
Object type
Payload
Rocket body
Debris
Shape & HBR
Box + 1 Pan, 10.1 m
Radar Cross Section
13.562 m², Large (>1 m²)

Expand to show TLE details & history
Last TLE update: 3 days ago

TLE from 3 days ago
0 STARLINK-4502
1 53557U 22101AG  26170.80489709  .00000126  00000-0  26010-4 0  9994
2 53557  53.1592 325.5943 0001226  87.9495 272.1636 15.08832504212374
Epoch: 2026-06-19T19:19Z
TLE epoch observation values (Epoch: 2026-06-19T19:19:03.108Z)
Latitude
-0.00009°
Longitude
127.80267°
Altitude
540.626 km
Speed
7.593 km/s
True Right ascension
21h 42m 22s
True Declination
0° 00' 00"
Sunlit
Object was in full shadow at epoch
Visualization orbit readout
Latitude
Unknown
Longitude
Unknown
Altitude
Unknown
Speed
Unknown
Apparent Right ascension
Unknown
Apparent Declination
Unknown
Sunlit
N/A
Visualization observer readout
Local Sidereal Time
21:30:16
Azimuth
Unknown
Elevation
Unknown
Doppler factor
Unknown
Orbital elements
Apogee altitude
540.869 km
Perigee altitude
539.172 km
Semi-major axis
6,918.158 km
Eccentricity
0.00012
Inclination
53.1592°
RAAN
325.5943°
Arg. of periapsis
87.9495°
True anomaly
272.14956°
Mean anomaly
272.1636°
Eccentric anomaly
272.15658°
Mean motion
3.77188 °/min
Orbital period
95.44 mins
BSTAR
0.00002601
Loading maneuver chart data...
Computing Atmospheric mass density...
Loading historical data...
Loading historical data...
Loading historical data...
Loading historical data...
Loading historical data...
Loading historical data...
Loading historical data...

Documentation

Showing up to 5 results
|